CW3007 Weather Reports


Display with metric or nautical units.
time (UTC)temp
F
wind
direction
speed
MPH
gust
MPH
rain 1hr
in
rain 24hr
in
rain mn
in
humidity
%
barometer
mb
20260906193037 96 165 6.0 8.0 0.00 0.00 0.00 42 1010.9
20260906192037 96 199 3.0 9.0 0.00 0.00 0.00 42 1011.1
20260906191037 95 17 0.0 8.0 0.00 0.00 0.00 43 1011.1
20260906185037 94 246 0.0 9.0 0.00 0.00 0.00 45 1011.4
20260906184037 94 239 3.0 8.0 0.00 0.00 0.00 47 1011.3
20260906183037 93 188 1.0 8.0 0.00 0.00 0.00 50 1011.5
20260906182037 92 253 2.0 5.0 0.00 0.00 0.00 52 1011.6
20260906181037 91 207 2.0 9.0 0.00 0.00 0.00 53 1011.9
20260906180037 91 123 8.0 9.0 0.00 0.00 0.00 56 1012.1
20260906175037 91 163 6.0 8.0 0.00 0.00 0.00 60 1012.3
20260906172037 89 188 3.0 11.0 0.00 0.00 0.00 64 1012.9
20260906171037 89 214 3.0 9.0 0.00 0.00 0.00 65 1013.1
20260906170037 88 191 4.0 7.0 0.00 0.00 0.00 66 1013.2
20260906165037 87 209 4.0 7.0 0.00 0.00 0.00 68 1013.2
20260906164037 87 207 3.0 10.0 0.00 0.00 0.00 67 1013.2
20260906163037 86 173 5.0 6.0 0.00 0.00 0.00 69 1013.4
20260906162037 86 233 1.0 8.0 0.00 0.00 0.00 70 1013.4
20260906155037 86 105 1.0 7.0 0.00 0.00 0.00 71 1013.0
20260906154037 85 172 2.0 7.0 0.00 0.00 0.00 72 1013.0
20260906153037 84 100 3.0 5.0 0.00 0.00 0.00 73 1012.9
20260906152037 84 143 2.0 6.0 0.00 0.00 0.00 74 1012.8
20260906150037 83 177 1.0 5.0 0.00 0.00 0.00 77 1012.7
20260906145037 82 173 3.0 8.0 0.00 0.00 0.00 77 1012.6
20260906144037 82 148 3.0 7.0 0.00 0.00 0.00 78 1012.6
20260906143037 82 141 0.0 7.0 0.00 0.00 0.00 78 1012.5
20260906142037 82 158 1.0 4.0 0.00 0.00 0.00 79 1012.5
20260906140037 81 141 2.0 4.0 0.00 0.00 0.00 79 1012.5
20260906135037 81 139 3.0 6.0 0.00 0.00 0.00 79 1012.4
20260906134037 81 130 4.0 7.0 0.00 0.00 0.00 79 1012.4
20260906133037 81 173 2.0 7.0 0.00 0.00 0.00 79 1012.3
20260906132037 81 136 0.0 4.0 0.00 0.00 0.00 78 1012.2
20260906131037 81 167 0.0 5.0 0.00 0.00 0.00 78 1011.9
20260906130037 81 163 0.0 5.0 0.00 0.00 0.00 78 1011.9
20260906125037 81 112 0.0 2.0 0.00 0.00 0.00 78 1011.7
20260906124037 80 234 0.0 0.0 0.00 0.00 0.00 79 1011.5
20260906123037 79 234 0.0 0.0 0.00 0.00 0.00 80 1011.3
20260906121037 79 234 0.0 0.0 0.00 0.00 0.00 79 1011.0
20260906120037 79 234 0.0 0.0 0.00 0.00 0.00 78 1010.9
20260906115037 79 234 0.0 0.0 0.00 0.00 0.00 77 1010.8
20260906113037 80 234 0.0 0.0 0.00 0.00 0.00 76 1010.5
20260906112037 81 234 0.0 0.0 0.00 0.00 0.00 75 1010.4
20260906111037 81 234 0.0 0.0 0.00 0.00 0.00 75 1010.3
20260906110037 81 234 0.0 0.0 0.00 0.00 0.00 74 1010.3
20260906105037 82 234 0.0 1.0 0.00 0.00 0.00 74 1010.4
20260906104036 82 233 1.0 3.0 0.00 0.00 0.00 73 1010.3
20260906103036 82 182 0.0 5.0 0.00 0.00 0.00 73 1010.1
20260906102036 82 184 0.0 6.0 0.00 0.00 0.00 73 1010.2
20260906100037 82 225 3.0 4.0 0.00 0.00 0.00 73 1010.1
20260906095037 82 206 0.0 0.0 0.00 0.00 0.00 73 1010.1
20260906094036 82 221 0.0 3.0 0.00 0.00 0.00 73 1010.1
20260906093037 82 220 2.0 6.0 0.00 0.00 0.00 74 1010.0
20260906091036 82 203 0.0 2.0 0.00 0.00 0.00 73 1009.9
20260906090036 82 179 0.0 2.0 0.00 0.00 0.00 73 1009.9
20260906085037 83 169 0.0 2.0 0.00 0.00 0.00 73 1009.9
20260906083036 83 161 0.0 6.0 0.00 0.00 0.00 72 1010.0
20260906082036 83 144 3.0 6.0 0.00 0.00 0.00 72 1009.9
20260906081036 84 186 3.0 6.0 0.00 0.00 0.00 71 1010.0
20260906080036 84 161 4.0 7.0 0.00 0.00 0.00 71 1010.1
20260906075036 84 178 3.0 8.0 0.00 0.00 0.00 71 1010.2
20260906074036 84 175 1.0 8.0 0.00 0.00 0.00 70 1010.4
20260906073037 84 174 3.0 8.0 0.00 0.00 0.00 70 1010.5
20260906072037 84 182 3.0 5.0 0.00 0.00 0.00 71 1010.6
20260906071036 84 169 4.0 7.0 0.00 0.00 0.00 71 1010.7
20260906070036 84 167 5.0 6.0 0.00 0.00 0.00 72 1010.8
20260906065037 83 159 2.0 5.0 0.00 0.00 0.00 72 1010.9
20260906064036 83 196 2.0 5.0 0.00 0.00 0.00 72 1011.0
20260906063036 83 180 1.0 6.0 0.00 0.00 0.00 72 1011.1
20260906062036 83 150 1.0 5.0 0.00 0.00 0.00 72 1011.1
20260906061037 83 148 3.0 7.0 0.00 0.00 0.00 72 1011.2
20260906060036 84 165 0.0 5.0 0.00 0.00 0.00 72 1011.2
20260906055037 84 141 3.0 4.0 0.00 0.00 0.00 71 1011.2
20260906054036 84 153 3.0 7.0 0.00 0.00 0.00 71 1011.2
20260906053036 84 180 2.0 7.0 0.00 0.00 0.00 71 1011.1
20260906052036 84 173 3.0 9.0 0.00 0.00 0.00 71 1011.1
20260906051036 84 175 3.0 6.0 0.00 0.00 0.00 70 1011.2
20260906050036 84 146 3.0 7.0 0.00 0.00 0.00 70 1011.3
20260906045036 84 156 3.0 8.0 0.00 0.00 0.00 69 1011.2
20260906044036 84 109 4.0 9.0 0.00 0.00 0.00 69 1011.3
20260906043036 85 128 4.0 9.0 0.00 0.00 0.00 68 1011.3
20260906042036 85 143 6.0 10.0 0.00 0.00 0.00 68 1011.2
20260906041036 85 82 3.0 7.0 0.00 0.00 0.00 68 1011.1
20260906040036 85 130 2.0 10.0 0.00 0.00 0.00 67 1011.1
20260906035036 85 138 3.0 9.0 0.00 0.00 0.00 67 1011.1
20260906034036 85 128 4.0 9.0 0.00 0.00 0.00 66 1011.2
20260906033036 86 115 8.0 11.0 0.00 0.00 0.00 65 1011.1
20260906032036 86 123 5.0 9.0 0.00 0.00 0.00 63 1011.1
20260906031036 87 80 7.0 13.0 0.00 0.00 0.00 62 1011.0
20260906030036 87 114 4.0 11.0 0.00 0.00 0.00 61 1010.8
20260906025036 88 82 4.0 11.0 0.00 0.00 0.00 60 1010.7
20260906024036 88 92 8.0 11.0 0.00 0.00 0.00 59 1010.4
20260906023036 89 119 9.0 13.0 0.00 0.00 0.00 58 1010.1
20260906022036 89 100 8.0 13.0 0.00 0.00 0.00 57 1009.9
20260906021036 90 81 12.0 13.0 0.00 0.00 0.00 55 1009.7
20260906020036 90 94 4.0 12.0 0.00 0.00 0.00 54 1009.5
20260906015036 90 81 5.0 12.0 0.00 0.00 0.00 52 1009.3
20260906014036 91 80 5.0 12.0 0.00 0.00 0.00 52 1009.2
20260906013036 91 92 8.0 13.0 0.00 0.00 0.00 51 1009.2
20260906012036 92 89 11.0 13.0 0.00 0.00 0.00 51 1009.1
20260906010036 93 72 8.0 13.0 0.00 0.00 0.00 49 1009.0
20260906005036 94 84 14.0 16.0 0.00 0.00 0.00 48 1009.0
20260906004036 94 103 9.0 14.0 0.00 0.00 0.00 48 1008.9
20260906003036 95 111 2.0 15.0 0.00 0.00 0.00 47 1008.9
20260906001036 96 90 3.0 14.0 0.00 0.00 0.00 45 1008.7
20260905235036 97 84 9.0 14.0 0.00 0.00 0.00 44 1008.6
20260905234036 97 120 3.0 12.0 0.00 0.00 0.00 41 1008.4
20260905233036 98 136 5.0 12.0 0.00 0.00 0.00 41 1008.4
20260905232036 98 118 8.0 12.0 0.00 0.00 0.00 41 1008.4
20260905231036 98 86 7.0 10.0 0.00 0.00 0.00 39 1008.2
20260905230036 100 107 7.0 12.0 0.00 0.00 0.00 38 1008.3
20260905225036 100 64 3.0 7.0 0.00 0.00 0.00 37 1008.3
20260905224036 99 234 2.0 6.0 0.00 0.00 0.00 37 1008.4
20260905223036 98 138 1.0 6.0 0.00 0.00 0.00 38 1008.5
20260905222036 96 156 2.0 4.0 0.00 0.00 0.00 40 1008.6
20260905221036 96 157 0.0 2.0 0.00 0.00 0.00 41 1008.7
20260905220036 97 76 0.0 9.0 0.00 0.00 0.00 39 1008.7
20260905215036 98 71 4.0 9.0 0.00 0.00 0.00 38 1008.6
20260905214036 99 170 0.0 9.0 0.00 0.00 0.00 39 1008.6
20260905213036 99 175 3.0 7.0 0.00 0.00 0.00 38 1008.7
20260905212036 99 190 6.0 12.0 0.00 0.00 0.00 38 1008.8
20260905211036 98 223 2.0 6.0 0.00 0.00 0.00 40 1008.9
20260905203036 98 126 8.0 11.0 0.00 0.00 0.00 40 1009.7
20260905202036 98 188 3.0 10.0 0.00 0.00 0.00 39 1009.7
20260905201036 98 180 0.0 7.0 0.00 0.00 0.00 41 1009.8
20260905195036 97 245 7.0 9.0 0.00 0.00 0.00 41 1010.3
20260905194036 96 13 3.0 8.0 0.00 0.00 0.00 42 1010.4